Wind_Speed
11 10 12 14 15 17 20 20 20 18 18 17 15 13 14 13 12 14 14 12 14 12 14 16 15 16 15 13 14 13 13 13 14 17 14 10 10 13 13 13 13 13 13 16 20 22 23 24 24 24 26 27 26 27 29 30 30 28 28 29 28 29 29 26 26 24 23 22 20 19 18 17 17 16 16 15 14 14 14 14 15 15 14 15 15 14
12 13 16 19 19 19 20 21 21 19 20 19 15 13 14 13 12 14 15 14 16 11 12 16 16 16 16 13 15 16 16 15 15 15 19 19 16 14 16 16 15 12 11 15 17 19 23 24 25 25 25 27 27 27 30 30 31 29 28 29 28 30 31 28 28 26 24 23 21 20 18 17 17 17 17 16 15 14 14 15 17 17 15 15 15 15
13 15 19 21 19 19 19 19 21 21 20 17 14 13 11 11 11 13 16 15 14 9 10 14 15 15 17 17 15 17 18 16 16 15 17 23 20 16 17 16 15 14 12 13 15 18 23 25 27 26 25 28 28 28 30 30 31 30 28 30 28 29 31 30 28 27 26 24 21 20 18 17 16 17 17 15 15 14 13 15 17 16 16 16 16 15
12 15 19 20 18 20 21 20 22 20 16 14 14 12 11 12 11 10 14 16 14 11 11 12 12 12 15 17 17 17 17 17 19 18 16 22 21 18 19 16 15 17 14 14 16 18 21 24 26 26 25 28 28 28 30 30 32 31 29 31 30 28 30 30 30 28 26 23 21 19 18 17 16 16 17 15 15 16 14 15 16 17 17 17 16 16
15 14 16 20 21 22 22 21 21 16 13 15 17 15 13 14 14 11 12 14 14 14 13 12 10 9 11 14 14 14 13 16 19 19 16 18 21 20 19 18 16 18 17 16 18 19 19 20 23 25 25 28 29 29 31 32 33 32 31 33 32 30 30 30 31 30 27 24 22 20 18 17 16 15 18 18 16 17 17 16 18 18 18 18 17 16
17 15 16 21 22 22 21 19 20 16 11 14 18 19 18 16 16 15 14 12 11 12 14 14 9 7 11 14 14 13 13 13 13 16 18 16 20 22 19 19 18 18 18 17 18 18 17 19 20 23 25 28 29 30 32 33 33 33 32 34 34 32 32 31 31 31 29 26 25 23 21 19 19 16 18 21 18 17 19 17 18 19 19 18 18 17
13 17 17 19 21 23 22 18 20 19 12 11 15 20 22 20 17 17 16 12 9 9 13 15 11 7 11 14 15 15 14 14 12 15 18 16 20 21 17 18 18 17 18 17 16 14 14 17 17 19 26 31 31 32 33 32 33 33 33 35 35 33 33 32 32 33 30 28 26 25 23 21 21 19 17 20 20 18 19 18 18 20 20 19 19 18
14 20 20 20 20 20 18 16 18 20 14 10 13 18 21 21 20 18 16 13 10 10 12 16 15 9 9 11 14 17 17 16 14 15 18 19 21 22 18 18 18 18 19 17 15 13 12 14 15 20 28 32 32 32 33 33 33 34 35 37 36 34 33 33 33 34 32 30 28 26 25 22 21 20 17 18 20 18 18 19 19 19 21 21 20 19
16 21 22 21 19 15 15 16 18 20 16 11 13 15 17 20 21 18 14 12 10 11 10 13 15 10 8 10 13 17 19 17 15 15 16 19 22 21 20 21 21 20 20 18 18 16 14 14 17 22 28 30 32 32 34 34 34 36 36 37 37 35 34 33 34 36 33 31 30 28 26 23 21 21 19 18 20 19 18 19 20 20 21 22 22 21
14 18 21 20 16 13 15 17 19 19 16 13 15 15 13 16 18 16 14 10 10 11 11 14 15 10 8 9 11 14 16 17 17 17 15 17 22 20 20 22 21 19 18 19 20 18 17 18 21 23 25 28 31 32 34 34 33 35 35 36 37 36 35 34 35 37 35 32 31 29 27 25 23 22 21 19 20 21 20 19 20 21 21 22 23 22
15 16 17 17 15 13 15 17 19 19 17 14 14 14 11 11 12 12 12 10 10 11 13 17 17 11 8 7 9 11 11 13 14 14 15 17 21 20 19 20 20 18 16 16 18 18 19 23 28 28 27 30 32 31 32 32 33 34 35 37 38 36 36 36 36 37 36 33 32 31 29 27 25 23 23 22 21 22 22 21 21 21 21 21 22 22
19 16 14 14 16 16 15 16 17 19 19 15 12 11 9 8 8 9 9 10 11 11 13 18 18 14 11 8 10 10 10 13 14 12 14 19 20 17 18 19 18 17 16 15 16 16 18 21 26 28 28 32 34 32 33 33 34 35 35 38 38 36 36 36 37 38 37 35 33 32 30 29 28 25 24 24 23 24 24 23 21 21 21 21 21 21
17 17 15 15 18 19 16 13 14 16 17 13 11 11 9 8 8 8 8 9 11 10 10 16 18 15 12 10 13 14 11 15 17 16 13 18 19 16 17 19 17 17 18 17 15 15 16 17 19 22 26 31 33 32 34 35 35 35 36 38 39 37 37 37 37 38 38 36 34 33 32 30 29 27 26 25 24 24 25 24 22 22 22 22 22 22
13 16 20 18 16 18 18 13 11 12 14 14 12 11 10 9 8 9 9 8 10 10 11 16 16 13 11 11 16 19 14 13 17 18 16 17 20 18 18 18 17 19 18 16 16 16 15 15 15 19 24 29 31 33 35 36 35 35 36 39 40 39 39 39 39 39 39 38 36 35 33 32 30 29 28 27 26 25 25 25 25 23 23 24 24 23
13 13 18 20 13 16 21 16 13 13 13 14 13 11 11 9 8 8 9 9 9 8 12 15 12 10 10 9 13 19 18 15 13 15 17 16 19 19 19 19 18 19 18 15 16 16 16 15 16 19 25 28 31 34 35 35 35 35 35 39 41 41 41 41 40 40 39 39 37 36 35 33 32 31 30 29 27 27 26 25 26 25 24 24 25 25
16 12 15 21 15 18 22 18 16 14 12 12 12 12 12 11 9 7 8 10 10 8 9 11 9 9 9 9 12 16 19 20 16 15 16 14 19 20 18 19 18 18 19 17 16 16 16 16 17 22 26 29 32 33 34 35 36 36 36 38 40 41 41 42 41 40 40 40 38 38 37 35 33 32 31 30 29 29 28 26 26 26 26 25 24 25
14 12 15 21 20 21 21 19 19 15 10 10 12 13 12 12 11 7 8 11 11 9 8 8 9 10 9 10 13 14 15 18 20 19 18 12 19 22 19 19 18 18 20 18 17 17 18 16 16 23 28 31 34 35 36 37 38 37 37 37 39 39 39 41 42 41 40 40 39 39 38 36 35 34 32 31 32 31 29 28 27 26 27 26 24 24
11 10 14 22 23 21 20 20 22 18 12 9 11 13 11 11 12 7 6 7 9 9 7 9 13 12 10 8 10 14 15 14 17 20 20 15 16 21 20 19 18 18 20 21 20 20 21 19 19 24 31 34 37 38 38 38 37 36 35 36 38 38 39 40 40 40 40 40 39 39 39 38 37 36 34 32 32 32 30 29 28 26 26 27 26 24
11 10 13 21 23 20 18 18 18 19 19 14 11 13 11 10 10 8 7 7 8 8 6 9 12 10 9 8 10 15 17 14 15 16 19 19 15 19 21 20 19 17 17 20 20 18 19 21 22 27 32 36 38 38 38 36 34 33 33 34 36 37 38 39 38 38 39 39 38 38 40 41 39 37 35 33 32 32 31 31 30 29 27 27 27 26
11 8 9 18 23 19 15 14 14 15 19 17 12 12 11 9 9 9 8 6 7 7 6 8 8 7 8 9 11 13 14 15 14 13 16 19 14 16 19 20 18 15 14 16 17 17 18 20 24 29 34 35 37 37 36 35 36 35 34 33 35 36 36 37 37 37 37 37 37 38 39 40 39 37 35 34 33 32 33 33 32 31 29 27 26 27
12 9 9 13 21 20 13 13 16 15 16 15 13 12 11 9 8 9 9 8 7 6 5 6 7 7 7 9 13 14 13 15 14 12 12 16 16 15 18 20 18 15 14 15 16 18 20 19 22 29 33 33 34 34 35 36 37 37 35 34 35 36 36 36 37 37 38 38 38 39 39 38 39 38 36 34 33 33 33 33 32 31 29 28 28 28
10 9 11 10 13 17 16 17 20 20 18 16 12 12 12 11 10 9 9 9 8 7 6 5 5 3 1 3 9 12 11 13 14 12 10 14 17 16 17 19 19 16 14 14 16 18 18 16 18 24 28 29 31 32 34 35 35 36 36 35 36 35 36 37 36 37 39 40 39 39 39 39 39 39 37 35 34 34 33 32 32 31 29 29 29 29
11 8 10 10 10 15 19 20 20 21 21 19 15 13 12 12 11 9 8 8 9 9 8 7 6 0 4 3 4 6 7 11 13 11 10 12 15 15 19 19 19 18 16 15 18 17 15 14 15 19 23 26 28 30 33 34 34 36 36 35 35 36 37 37 36 37 39 39 39 40 40 39 38 38 37 35 33 34 33 32 32 33 31 30 29 30
8 8 9 9 9 11 18 19 19 21 20 17 16 16 13 13 13 10 8 7 8 10 9 7 5 3 5 4 4 5 3 8 10 10 12 12 11 11 15 17 17 18 16 16 16 15 15 14 14 15 17 20 23 26 31 33 32 34 35 35 36 37 37 37 36 36 37 37 37 38 40 39 37 36 36 34 33 33 32 31 31 32 33 32 29 29
4 7 10 8 7 9 15 15 15 18 17 13 13 17 18 17 18 14 10 8 7 10 11 8 5 5 6 5 5 5 3 4 6 8 11 11 10 11 10 11 16 19 16 14 13 14 16 15 13 14 14 16 20 25 29 31 31 32 34 35 35 35 35 36 36 35 36 36 34 36 38 39 36 35 35 34 33 32 33 31 29 30 32 33 31 29
6 7 8 8 10 12 13 13 12 13 13 11 15 21 23 22 21 15 9 8 7 8 11 9 5 6 8 6 6 8 7 5 6 9 9 7 8 7 4 7 12 16 17 15 12 13 16 14 13 14 14 15 20 24 25 28 30 31 32 33 33 32 33 35 35 34 34 34 35 36 37 38 36 35 35 35 34 33 33 32 30 30 30 31 32 31
6 8 9 10 11 9 5 5 8 13 15 15 19 23 25 24 22 16 9 8 7 7 8 8 5 9 11 9 8 9 9 8 9 11 10 6 10 8 7 10 9 8 11 12 9 10 13 13 14 15 14 15 20 23 23 25 28 28 28 30 30 30 31 33 33 34 33 33 34 36 38 38 38 36 36 37 36 34 33 33 32 31 30 30 31 31
6 8 11 14 15 11 4 2 3 6 12 20 23 23 24 26 24 18 12 10 8 7 8 7 8 10 12 11 8 8 9 6 7 12 11 10 12 9 8 10 12 10 8 6 5 6 9 11 12 14 14 15 19 22 22 24 27 26 25 27 29 29 30 31 32 33 33 33 34 36 38 39 39 38 38 38 37 36 33 33 33 33 32 31 31 31
4 8 11 15 16 15 14 9 6 8 8 12 22 23 23 25 27 22 16 14 11 7 6 6 5 4 8 10 8 8 9 7 7 10 11 12 10 8 7 10 12 12 9 7 5 5 7 8 9 11 11 13 16 18 20 21 24 25 24 26 28 30 30 31 32 33 33 34 34 35 37 38 38 38 38 37 37 37 36 34 34 34 33 32 31 31
3 6 9 13 15 15 16 15 10 7 10 11 16 24 23 23 26 24 19 18 15 10 8 8 7 5 5 9 11 11 11 10 8 9 10 11 9 8 6 8 12 13 11 9 7 5 5 7 7 8 9 9 11 15 18 19 21 24 25 25 28 30 30 30 32 33 33 34 34 34 35 37 37 36 37 37 36 37 37 36 34 34 34 34 33 31
5 5 8 10 11 13 15 16 13 9 10 14 13 18 22 21 24 24 20 19 15 12 12 11 10 8 4 7 11 9 7 9 10 10 10 9 9 9 6 6 10 15 15 12 10 9 7 7 7 8 9 9 10 13 17 18 20 23 26 26 28 30 30 29 31 34 34 33 33 33 33 35 36 35 35 36 36 36 38 37 36 35 35 35 35 33
7 7 8 8 8 9 10 15 15 10 10 13 11 12 17 19 19 19 18 18 14 13 14 12 10 9 5 7 12 9 7 10 11 7 6 7 8 6 4 1 2 10 16 15 12 10 9 9 10 10 11 12 12 14 16 17 18 21 24 26 27 28 30 30 29 32 34 32 32 33 34 34 35 35 35 36 36 36 37 37 37 36 35 35 35 34
9 9 7 6 7 7 9 13 12 8 7 9 8 11 14 15 17 18 18 19 17 14 12 8 7 7 6 6 9 10 9 9 8 3 2 7 7 3 2 3 4 1 8 12 13 13 12 12 12 12 12 12 14 16 17 18 19 20 22 24 26 28 30 30 29 29 32 33 32 33 34 33 34 34 35 36 36 35 35 36 37 37 35 34 34 35
10 10 7 6 7 7 9 10 8 8 7 6 9 13 11 8 12 16 18 20 19 15 11 10 10 10 8 7 7 6 6 6 6 4 3 4 3 2 1 1 4 5 2 4 7 9 8 7 8 10 11 13 16 19 20 21 20 21 22 22 25 28 29 29 28 27 30 33 33 32 33 33 33 33 34 34 34 33 33 34 35 35 34 33 33 35
11 10 7 6 6 6 7 7 8 10 8 4 8 13 9 6 10 8 7 16 23 20 15 13 11 10 9 6 4 3 4 5 6 4 2 2 3 2 3 4 5 5 4 2 2 1 5 7 7 6 7 9 10 14 19 22 21 20 22 22 23 25 27 27 26 25 27 31 32 31 32 32 31 31 32 32 32 32 33 33 33 33 33 32 32 34
10 9 7 7 7 4 3 7 10 9 7 8 10 10 5 5 8 7 8 8 14 15 10 7 7 8 9 6 5 4 3 4 5 5 3 1 1 1 4 5 7 7 6 3 2 6 8 8 6 5 5 3 1 4 11 17 19 19 21 22 23 23 25 26 26 25 25 28 31 31 31 31 30 30 31 31 31 32 32 32 32 31 32 31 30 31
9 8 6 6 6 4 4 7 8 8 8 10 12 10 6 5 7 5 6 6 1 6 7 6 5 7 7 7 6 5 3 2 3 2 3 5 7 5 3 7 5 4 2 4 9 12 11 9 8 6 4 2 2 5 7 10 15 19 20 21 22 22 23 24 25 26 25 26 29 31 30 30 29 29 30 30 30 32 32 31 31 30 31 31 29 28
9 8 7 7 5 4 5 6 8 10 9 7 10 8 6 4 7 4 4 5 2 4 6 5 5 7 7 7 9 10 8 5 4 3 1 2 2 4 10 15 15 11 9 11 13 13 12 10 8 5 5 5 5 7 8 8 9 14 18 21 22 22 21 23 25 26 25 24 27 29 29 29 28 29 30 30 30 30 30 29 29 29 29 30 29 28
12 9 8 7 6 6 6 6 7 8 7 7 11 9 7 4 6 3 3 4 2 2 6 9 10 6 1 2 1 6 8 7 5 2 6 8 10 12 12 12 13 13 12 13 13 12 10 7 5 5 6 7 7 8 9 10 10 10 13 18 21 20 20 22 24 25 25 24 24 27 28 28 27 28 29 29 29 28 27 27 27 27 27 28 28 27
11 7 7 7 6 6 7 7 5 4 2 2 2 6 10 10 6 5 5 3 7 12 9 3 2 7 10 8 5 4 4 3 4 5 9 10 11 12 11 11 11 10 10 12 13 10 6 3 3 4 5 5 6 5 5 8 10 11 10 14 18 19 20 22 23 23 24 23 23 26 27 27 27 27 27 27 28 27 27 26 25 25 25 25 25 25
8 7 7 8 8 7 7 7 5 3 3 5 7 7 1 7 8 6 5 1 7 11 12 10 12 15 12 7 4 3 3 7 8 8 10 11 11 10 10 9 10 10 10 11 10 9 6 5 5 5 5 6 7 7 5 6 8 10 11 11 15 17 18 19 20 20 22 22 22 24 26 26 26 26 25 25 26 26 26 26 25 25 25 24 23 24
7 6 6 8 9 7 5 6 6 2 4 5 6 11 14 3 5 2 3 7 6 8 13 13 14 14 11 9 8 6 7 11 12 10 11 11 10 9 9 9 9 9 10 9 8 9 8 6 6 6 6 7 7 7 7 7 8 8 9 8 10 13 15 16 18 19 20 21 22 22 23 24 25 25 25 24 24 25 25 25 25 24 25 24 23 23
8 7 7 8 8 7 7 7 7 3 9 12 8 9 12 5 2 2 7 8 6 12 12 10 12 12 10 9 10 10 10 12 13 13 13 11 10 10 9 8 8 8 8 8 8 11 10 7 5 6 6 7 8 5 4 6 6 6 7 7 7 10 12 13 15 17 18 19 21 21 22 23 23 24 24 24 24 24 23 23 23 23 23 23 22 21
5 5 5 6 6 7 9 7 2 1 7 12 10 6 6 5 3 5 6 6 9 11 9 7 9 10 9 9 10 10 10 11 12 12 12 11 11 11 9 8 8 8 9 9 9 11 10 7 6 7 6 7 10 10 6 3 5 5 3 2 3 7 10 10 12 16 18 18 19 20 20 20 21 22 22 21 22 22 21 21 21 21 21 21 20 18
1 2 2 3 4 5 6 4 4 6 5 10 10 7 6 6 6 7 7 6 8 9 9 8 8 9 9 8 8 8 9 10 11 11 12 11 11 11 10 9 9 9 9 9 9 10 9 7 6 6 5 5 7 9 9 4 3 4 4 5 3 2 7 9 9 12 15 15 16 17 18 18 19 20 19 19 19 19 19 19 19 18 17 18 18 16
5 6 5 3 4 7 6 5 6 7 5 10 10 7 6 6 8 9 9 7 7 8 8 8 9 11 10 8 7 8 8 9 10 10 11 11 11 11 10 9 9 9 9 9 10 10 9 8 6 5 5 6 7 8 9 7 4 6 8 6 3 2 3 6 8 9 11 12 13 15 16 16 17 18 16 16 17 17 17 17 17 16 14 14 14 14
7 7 6 6 5 6 4 3 4 7 7 8 8 6 5 6 8 9 8 7 8 8 8 8 9 10 11 9 8 7 7 8 9 9 9 10 10 10 10 9 9 8 8 8 9 9 10 9 5 5 7 8 10 10 10 8 8 8 7 1 3 2 3 5 7 8 10 11 13 14 15 16 16 16 16 16 16 16 17 16 16 16 16 16 15 15
5 6 6 7 7 6 7 7 8 11 11 9 7 6 6 6 7 8 7 8 9 9 9 10 9 8 9 11 10 8 7 8 8 7 8 8 9 8 8 8 8 8 8 8 7 7 9 9 4 3 4 6 7 8 9 9 9 9 9 4 3 6 5 6 8 9 10 11 12 13 14 14 15 17 16 14 11 10 13 15 16 15 14 13 13 13
4 4 6 8 7 7 9 10 11 11 12 10 9 9 7 5 5 6 7 8 10 11 11 11 10 9 9 10 11 10 8 7 8 8 7 7 8 8 7 7 7 7 7 7 6 6 8 7 4 3 4 4 4 4 5 6 6 6 9 9 5 6 6 6 7 8 8 9 10 12 12 12 12 13 14 15 15 14 12 11 11 14 14 11 8 7
7 7 7 7 7 7 7 7 7 8 8 8 8 7 6 9 9 9 8 9 10 11 12 12 12 11 10 9 10 11 9 7 7 7 7 7 7 7 7 8 7 6 6 5 4 4 4 5 4 4 4 3 4 4 4 5 4 4 7 9 8 8 9 10 11 10 10 10 9 9 9 9 8 10 15 20 21 21 21 20 17 16 15 13 10 8
8 8 8 8 8 8 9 8 7 6 6 8 9 7 8 10 12 12 12 11 10 11 12 13 13 13 12 10 10 10 10 9 8 8 8 7 7 7 7 8 7 6 5 3 2 2 1 1 1 2 3 3 3 4 5 5 5 6 7 8 9 9 9 10 11 11 11 12 12 11 11 11 12 13 16 19 20 21 23 23 21 18 16 13 11 9
Wind_Direction
207 213 213 219 216 213 215 219 226 226 232 240 232 223 222 222 231 238 232 200 194 210 212 214 218 220 221 195 182 189 194 193 182 164 144 155 176 167 173 179 185 193 184 181 186 194 197 190 187 184 180 182 178 175 175 173 176 178 173 174 177 177 179 178 177 180 182 184 186 188 191 191 193 197 199 203 203 201 202 198 192 194 195 193 195 195
207 221 219 216 217 218 218 219 226 228 230 241 246 237 227 223 224 233 235 208 193 207 211 206 215 224 225 214 197 190 193 202 200 173 150 163 177 171 177 182 182 186 184 182 184 193 197 191 189 186 181 182 180 175 175 175 177 180 176 176 177 176 177 179 180 182 185 187 187 188 191 191 191 194 197 201 204 201 201 199 194 194 196 195 196 196
208 226 222 215 216 221 223 219 221 228 229 233 244 249 241 228 220 225 236 220 192 201 216 205 214 224 223 229 223 202 197 193 193 192 165 160 169 174 177 179 178 179 182 183 185 195 199 193 187 185 183 184 184 178 177 178 178 180 179 177 179 176 175 179 182 184 187 189 189 189 191 193 192 193 196 199 201 203 201 196 195 196 197 199 198 198
208 223 218 215 214 217 224 222 218 223 230 230 233 241 244 237 227 218 229 222 200 210 225 214 223 226 216 223 227 220 208 185 186 200 181 159 164 169 173 178 178 177 181 184 188 198 199 193 186 185 184 184 184 180 180 179 178 180 180 178 179 178 176 179 182 184 186 189 190 190 192 196 197 193 193 199 201 202 204 197 195 198 199 201 199 199
218 217 208 212 215 215 220 222 219 217 222 227 229 232 236 238 240 237 231 220 205 210 216 215 227 229 225 227 225 228 213 184 183 191 185 165 159 162 169 178 183 181 180 184 191 197 196 191 187 185 183 185 186 182 182 182 180 181 181 179 180 179 179 179 183 185 185 187 188 189 193 197 204 198 187 195 202 199 203 202 197 200 202 201 201 202
225 217 203 207 214 215 217 220 220 217 217 224 227 231 236 238 241 245 245 232 215 209 205 213 230 223 226 236 230 229 218 199 189 183 183 168 155 163 172 176 185 186 180 185 192 193 192 189 186 183 184 189 190 185 184 183 182 181 179 179 180 180 181 181 182 184 184 186 186 188 191 192 202 204 187 190 198 197 199 203 199 198 201 201 202 204
226 222 212 206 209 213 217 220 218 217 221 223 220 225 234 240 240 239 241 237 230 223 207 208 225 228 221 228 228 230 225 213 205 188 182 167 154 164 171 172 180 184 180 184 188 185 187 187 183 183 187 194 194 187 185 184 182 182 179 179 180 180 181 181 182 182 182 186 186 187 191 192 197 203 197 192 196 200 198 202 202 195 197 202 203 205
217 221 218 208 207 211 215 218 215 215 222 226 218 217 224 235 242 242 241 240 239 240 226 210 212 223 229 227 226 229 230 221 210 194 180 167 160 163 167 173 179 182 179 180 183 181 185 190 187 187 190 196 196 188 184 184 183 182 180 179 181 181 182 182 183 183 182 185 186 188 191 195 198 200 203 196 196 203 199 200 202 196 197 203 204 205
209 218 220 212 209 211 214 215 211 214 223 226 225 223 218 223 234 242 245 249 251 249 243 224 212 212 223 224 222 223 227 228 221 217 197 166 159 164 167 171 177 180 178 178 184 186 188 197 198 193 190 194 197 191 185 185 182 181 181 179 180 181 182 183 183 184 184 185 186 189 191 195 198 200 202 198 196 202 201 200 201 199 199 201 203 205
211 213 219 219 215 212 213 213 210 214 221 218 224 234 225 217 222 231 239 247 254 251 246 240 231 225 222 215 216 216 217 222 216 219 216 171 158 167 169 171 175 178 178 180 185 187 187 193 202 200 189 192 202 196 187 185 181 180 180 179 181 181 182 183 183 184 185 186 187 189 192 194 195 197 199 198 196 199 202 202 202 203 201 197 200 204
228 210 212 224 223 213 211 213 210 213 218 212 216 232 231 222 216 218 228 235 245 245 237 242 243 240 241 228 229 224 211 223 222 213 209 178 163 168 168 170 176 175 177 181 184 187 185 188 199 199 184 188 203 198 189 187 182 180 181 180 182 183 183 184 183 185 186 187 189 190 193 194 194 196 196 198 197 196 201 203 202 204 202 196 197 201
236 221 205 215 225 216 207 213 211 208 214 211 207 218 222 221 216 212 215 216 231 237 226 233 237 235 236 231 240 240 209 216 238 234 203 172 168 177 169 170 176 174 175 180 183 187 185 186 195 196 184 188 200 195 189 189 183 181 181 180 182 183 184 184 184 185 187 188 191 192 194 195 195 196 197 199 199 196 199 203 202 202 202 200 197 198
228 232 217 204 214 217 207 207 209 203 205 206 202 205 209 206 201 206 210 211 226 238 226 225 228 231 238 233 238 246 222 203 218 235 212 170 175 187 171 170 174 171 176 178 176 182 188 189 192 194 189 189 195 193 189 189 185 182 182 181 182 183 184 185 185 186 188 190 192 193 195 197 197 198 200 202 202 199 199 201 202 202 200 201 199 198
213 227 226 211 201 211 212 202 202 200 193 199 201 197 206 205 191 199 210 218 228 233 228 225 225 229 239 235 232 238 238 219 210 216 213 187 181 179 169 176 175 168 176 177 172 180 190 193 188 192 194 190 191 192 189 190 187 183 182 182 182 184 185 185 186 187 188 191 194 195 196 198 198 199 202 204 204 203 201 201 202 203 201 201 201 201
211 214 219 217 196 194 210 210 202 197 188 198 205 203 212 210 198 203 208 216 228 228 220 220 223 229 232 227 226 229 232 237 229 217 217 199 176 168 169 180 178 170 174 176 175 182 187 191 193 198 197 189 189 193 191 191 189 184 184 184 183 184 184 185 186 188 190 192 194 196 197 198 199 200 202 205 206 206 204 202 202 203 204 203 204 205
218 219 209 214 208 192 201 208 205 200 192 196 201 207 215 209 203 214 217 217 225 231 217 212 217 226 237 238 227 224 220 222 227 233 235 202 164 164 171 178 183 173 170 176 177 182 188 189 193 201 199 190 189 194 194 192 190 187 185 185 185 186 185 185 186 188 191 192 194 196 198 199 200 201 202 205 207 207 206 204 204 205 205 205 205 206
218 223 202 204 211 204 197 197 205 210 196 186 199 211 210 205 213 227 228 220 220 229 222 211 217 217 230 240 223 221 222 215 212 220 235 213 165 167 171 175 187 178 167 174 177 180 190 191 193 201 199 192 191 194 195 194 191 188 185 185 186 186 186 187 188 189 191 192 193 196 198 199 200 200 202 204 206 207 207 207 207 207 207 207 206 205
221 226 204 199 206 205 192 191 207 218 211 190 195 205 203 206 217 230 240 228 219 230 224 214 222 213 208 222 211 214 221 219 212 207 220 225 181 169 171 173 184 183 171 172 175 178 186 190 194 199 198 194 193 195 195 194 191 188 186 185 184 184 185 187 188 189 191 192 193 195 197 198 200 201 202 204 206 206 207 208 208 209 209 209 208 206
225 231 209 200 201 194 182 189 206 215 219 219 199 192 199 205 205 209 231 234 222 229 226 220 230 222 205 202 202 210 209 213 223 208 206 222 197 164 169 175 180 186 175 169 173 178 182 186 189 192 195 196 194 195 195 191 189 189 187 186 185 185 185 186 187 189 191 191 192 195 197 199 201 202 202 203 205 205 206 208 208 209 210 209 209 208
232 244 216 196 192 185 178 190 204 205 212 225 216 194 201 211 203 202 217 231 230 227 221 219 229 235 224 200 191 205 199 196 220 221 203 211 200 163 166 175 180 186 180 171 173 177 181 184 187 190 194 195 194 194 194 191 190 191 190 188 188 187 186 187 188 189 190 191 193 195 198 200 201 202 202 203 203 204 206 208 209 210 210 209 208 208
229 247 237 198 187 188 189 194 201 198 198 212 217 201 195 202 205 206 211 219 231 236 229 223 225 230 230 201 187 199 197 185 202 225 210 200 197 177 168 172 177 186 188 178 172 175 179 182 186 191 193 194 193 191 192 193 192 192 191 190 190 189 188 188 189 190 191 192 194 196 197 199 201 202 203 203 204 204 207 208 209 209 209 210 209 208
224 232 232 217 197 198 198 195 198 202 200 200 209 208 197 194 200 207 209 207 217 237 240 242 250 239 230 193 181 186 184 173 187 211 207 199 199 184 172 174 174 181 193 184 170 172 177 179 186 190 191 193 193 191 192 195 193 192 193 192 191 191 191 191 190 191 193 193 195 197 197 198 200 202 203 203 204 205 207 207 209 209 209 209 210 209
231 235 229 232 233 210 194 190 196 205 208 203 206 213 203 196 202 209 209 197 204 225 233 244 257 355 51 49 131 146 154 161 181 197 188 199 212 193 181 183 175 173 188 188 177 173 174 179 186 185 185 191 193 190 191 194 194 195 194 193 192 192 192 192 192 193 195 196 196 197 197 198 199 200 201 201 202 204 205 207 209 210 209 209 210 211
237 242 230 238 265 226 191 189 196 204 212 210 205 210 210 203 201 207 215 202 201 211 211 229 236 146 80 76 96 82 113 153 169 188 183 190 215 207 186 181 170 165 179 194 185 171 169 176 180 177 179 188 193 189 190 194 195 195 195 195 195 194 193 192 193 193 194 196 197 196 197 198 197 197 198 199 200 202 204 206 208 209 210 210 211 211
291 252 229 231 259 221 189 188 195 199 211 217 204 203 213 211 200 201 213 211 209 208 202 213 220 150 98 82 105 114 134 149 155 184 192 183 193 212 201 174 163 159 169 192 188 163 164 172 174 174 175 182 190 191 189 192 195 195 196 198 197 196 194 193 193 193 192 194 196 196 197 198 197 196 197 198 200 203 204 204 206 207 209 210 211 211
304 275 251 233 226 211 194 194 199 194 200 219 211 199 206 215 207 198 204 210 207 198 199 214 213 145 125 125 151 151 156 191 184 179 194 177 159 194 195 134 148 159 164 181 183 163 165 171 171 175 175 177 188 192 189 190 195 197 198 199 199 197 195 194 194 193 191 191 194 197 199 199 199 199 198 200 202 203 204 205 206 206 206 207 209 210
292 278 272 256 239 227 190 171 205 204 196 209 216 202 198 211 214 203 198 210 202 183 201 214 174 144 147 158 172 163 166 198 191 170 176 139 93 79 70 85 102 130 150 164 169 161 167 173 171 171 171 174 185 192 190 189 195 199 198 198 199 198 196 195 195 194 192 192 194 197 199 200 201 201 200 202 204 205 205 206 207 207 206 206 207 209
295 273 268 260 256 249 229 59 342 254 213 206 213 208 196 202 212 211 202 197 188 186 201 191 159 154 154 152 155 160 169 183 171 163 156 113 92 92 92 97 100 99 114 133 121 121 147 164 164 162 165 174 184 190 191 190 195 199 197 196 199 200 199 197 196 195 194 194 196 198 199 201 202 203 203 204 205 206 206 207 208 208 208 207 206 209
303 280 279 263 256 250 243 254 301 312 285 225 212 210 200 198 205 211 209 197 186 195 199 166 157 161 142 145 160 168 169 160 148 150 124 93 97 112 111 118 118 111 115 125 110 98 118 138 150 155 162 172 181 188 192 192 193 195 196 195 197 202 202 197 195 196 195 195 198 199 199 200 202 204 206 205 205 206 207 208 209 210 209 209 207 209
317 279 288 274 262 255 252 253 253 278 306 287 232 212 202 198 202 206 212 207 193 196 206 179 175 193 153 156 171 169 162 152 132 119 106 96 100 107 123 149 138 125 124 129 131 126 116 123 139 150 160 175 184 187 191 193 190 190 195 196 197 201 204 199 194 195 197 198 199 199 198 199 202 204 206 206 205 206 207 208 209 210 211 211 211 210
341 294 298 294 276 262 257 256 248 242 271 288 265 221 205 200 200 200 208 213 199 192 207 193 172 182 167 140 150 147 130 115 108 122 131 113 99 110 141 167 145 139 141 141 146 151 148 146 150 157 169 182 190 191 192 194 191 191 196 198 198 200 203 201 195 195 198 199 198 198 198 199 201 203 205 206 206 206 206 207 208 210 211 212 212 211
342 325 311 303 276 258 260 253 237 220 245 274 286 253 222 207 201 196 200 211 204 187 197 199 178 180 180 137 136 138 121 93 87 113 130 87 80 117 143 57 122 145 148 150 152 150 156 168 169 173 182 188 195 198 197 194 191 193 198 198 198 199 203 205 201 195 197 198 196 197 199 199 199 202 204 206 206 206 206 207 208 210 211 211 212 211
336 331 319 306 278 253 261 261 238 213 240 261 266 251 232 215 208 200 195 206 209 196 192 195 175 173 197 186 157 150 140 108 96 119 98 67 67 70 50 12 346 72 142 146 146 150 167 180 179 180 185 186 192 198 201 200 197 198 201 199 197 199 203 207 206 198 195 197 196 196 198 198 199 201 204 205 206 206 205 206 208 210 211 211 211 211
326 323 314 313 295 255 257 269 248 221 229 235 230 228 228 237 233 212 193 195 203 202 196 190 179 166 174 200 189 151 126 117 129 140 68 66 85 56 27 288 297 293 235 136 132 151 162 155 156 168 174 179 189 194 198 203 203 202 204 202 199 200 203 207 208 202 195 195 197 196 197 198 199 202 204 204 204 205 205 206 208 209 210 211 211 211
312 313 312 309 293 262 255 252 231 224 224 225 233 227 224 272 283 275 236 203 197 196 193 187 175 147 136 164 182 119 101 122 139 138 108 113 139 147 198 218 235 253 265 311 353 83 90 93 114 135 144 162 186 191 190 196 203 203 203 204 202 201 202 206 209 205 197 194 196 196 195 197 199 201 203 203 202 203 205 207 208 208 208 210 210 212
298 306 320 313 290 276 267 241 227 227 220 214 228 226 218 269 278 293 297 244 190 172 166 159 146 123 120 147 156 123 129 129 104 94 94 51 343 261 254 249 233 230 238 237 88 73 67 66 66 61 61 80 197 211 191 191 198 202 203 204 205 203 202 204 208 208 201 194 195 196 195 196 198 199 202 202 201 203 205 206 207 207 207 209 212 214
285 295 309 306 281 265 284 260 233 219 209 213 226 214 188 252 266 243 258 280 132 137 148 146 160 165 161 170 165 145 141 121 96 135 213 250 251 244 334 0 343 283 229 112 90 80 69 54 46 39 22 4 263 250 238 209 199 200 200 200 203 205 203 203 206 209 204 197 196 196 195 195 196 198 200 200 201 203 205 205 206 206 207 209 212 215
270 274 281 296 295 279 283 268 232 212 196 210 236 217 171 236 271 265 243 247 237 218 210 193 201 207 201 205 199 186 181 190 205 210 237 300 314 46 41 32 25 25 48 71 77 75 66 50 33 10 334 307 268 251 254 250 229 208 196 193 199 203 203 204 207 208 207 201 197 196 195 194 196 198 199 201 202 203 203 204 205 207 207 208 210 214
246 259 269 278 289 280 268 262 239 214 198 215 224 194 154 204 252 269 232 197 154 320 262 230 216 200 113 2 220 176 175 178 171 79 19 21 38 44 41 37 34 34 44 53 56 54 50 38 5 323 295 275 267 252 236 240 252 240 205 190 192 197 202 208 209 207 207 204 197 195 195 195 198 199 200 202 202 202 201 202 204 206 207 208 210 214
227 239 252 251 259 271 264 261 250 202 186 298 259 167 164 181 197 197 187 167 20 9 353 286 176 77 53 34 43 109 144 133 87 30 359 3 26 34 33 33 33 32 35 40 41 36 26 32 24 338 315 309 311 298 245 224 236 251 234 197 189 196 205 210 209 207 206 204 197 194 195 197 200 200 201 202 203 202 202 201 201 203 204 207 209 213
205 216 232 237 244 254 256 258 248 180 104 37 29 25 41 189 189 184 174 286 340 359 16 32 53 54 46 42 55 69 29 14 20 16 1 358 9 16 18 20 19 16 14 18 31 35 27 35 35 356 320 308 293 276 265 239 227 242 245 213 196 201 206 207 207 204 204 202 197 194 195 198 200 200 201 204 203 203 202 201 201 202 202 205 208 210
184 200 216 227 238 242 240 243 228 201 24 38 65 34 17 8 193 173 344 307 317 23 33 38 50 46 38 39 34 19 6 2 5 12 7 358 359 3 3 3 6 7 0 358 23 38 30 30 20 347 323 312 289 254 242 243 233 238 246 227 206 205 203 202 201 199 199 200 197 195 196 199 200 200 202 205 204 202 200 199 200 202 202 203 207 209
172 186 203 213 231 238 230 225 211 221 358 14 53 51 26 18 192 8 336 315 14 41 29 33 47 35 26 31 20 8 6 3 4 8 2 354 356 355 349 355 5 8 359 1 26 29 17 15 10 345 339 347 345 327 254 232 226 231 237 227 211 203 197 195 195 194 195 197 197 198 200 200 198 198 201 204 204 200 198 197 199 201 202 203 206 208
176 187 199 201 216 226 219 213 204 294 359 25 49 63 37 27 34 23 351 347 31 30 9 26 44 27 21 25 9 359 4 5 4 360 351 348 350 346 347 3 13 10 357 358 17 17 3 3 12 1 358 3 355 345 330 250 203 203 208 189 195 199 198 200 197 191 190 193 196 199 201 199 196 196 199 202 200 196 194 195 197 201 202 202 204 207
304 349 326 227 239 266 255 259 326 327 360 40 45 41 32 19 17 30 22 14 28 19 3 14 20 10 19 25 6 359 4 4 1 353 346 346 344 343 352 4 7 1 347 348 11 13 355 353 7 1 0 13 1 352 355 4 164 149 90 62 53 185 193 194 187 178 180 187 192 196 199 198 194 191 194 197 194 189 189 191 194 200 202 199 201 207
305 318 320 294 294 312 295 259 270 294 360 40 29 10 8 359 6 28 29 15 16 10 3 8 2 353 360 12 17 16 5 355 355 351 346 343 338 340 348 349 352 354 343 347 12 10 343 334 351 2 10 21 19 9 8 16 52 78 71 55 25 41 152 164 160 161 172 181 188 193 195 195 191 186 186 189 186 185 188 190 192 195 196 196 202 208
291 295 286 269 278 298 284 234 268 303 339 19 13 344 328 332 358 24 25 3 357 352 355 4 359 347 348 358 14 16 357 349 356 354 345 337 332 337 340 335 339 345 336 343 4 354 328 322 343 19 18 15 14 14 14 21 34 44 45 25 220 182 151 156 154 160 173 178 182 188 191 191 188 182 182 187 188 187 188 191 194 193 191 196 204 207
314 335 313 275 260 261 266 281 303 307 313 329 333 317 311 327 359 19 12 351 343 342 348 353 349 348 354 355 355 355 351 355 358 350 339 330 325 329 332 328 332 334 329 334 345 340 328 322 326 21 20 12 12 11 14 23 29 26 18 359 195 176 173 177 170 172 179 178 176 180 185 184 181 181 180 176 170 171 178 189 195 187 178 185 197 199
288 301 292 281 274 264 262 270 279 284 288 291 282 277 289 318 354 5 357 346 342 339 341 342 341 347 354 352 346 342 342 354 356 344 333 325 319 323 326 321 317 312 311 321 334 339 337 332 338 33 37 24 16 16 27 31 22 13 16 24 62 117 123 129 138 146 155 157 159 168 173 172 173 175 161 133 108 96 102 123 142 137 126 124 132 139
262 255 259 267 266 258 252 255 260 268 276 273 261 270 322 351 350 342 341 342 340 337 335 336 337 339 343 349 348 337 331 341 346 334 323 319 319 324 325 317 309 299 293 299 309 314 325 341 7 42 55 37 23 41 65 60 38 22 27 36 55 83 96 97 95 94 93 90 97 115 124 118 110 114 120 116 106 94 88 89 95 105 107 103 103 105
257 257 259 258 258 263 269 277 286 293 296 289 284 301 348 353 335 326 330 332 332 335 334 332 333 333 332 336 342 335 328 334 338 331 326 323 322 320 312 306 303 297 287 277 268 262 262 342 42 74 80 61 47 60 72 70 63 52 45 48 60 75 91 97 92 86 80 76 77 80 82 80 77 85 101 111 108 101 95 90 88 91 93 95 100 100
Height
708 723 726 722 719 714 712 710 709 710 709 708 706 708 710 712 711 696 685 676 675 697 707 702 708 707 700 697 695 696 696 701 710 717 728 733 730 733 736 738 741 742 740 738 739 742 744 746 750 753 757 760 764 767 770 773 776 779 781 784 787 790 793 796 798 801 803 805 807 809 810 812 813 815 817 818 820 821 822 823 824 825 827 829 830 831
710 724 719 709 709 705 705 705 706 708 708 708 707 706 704 705 704 690 682 675 671 694 704 696 704 706 697 694 689 690 698 702 703 709 725 733 730 731 734 736 738 739 737 736 737 740 742 745 748 751 755 758 761 764 768 771 774 777 779 782 785 787 790 793 796 798 800 802 804 806 808 810 812 813 815 817 818 820 821 822 823 824 826 828 829 830
719 717 706 700 700 700 701 700 704 707 707 710 709 708 706 698 695 690 681 672 670 691 702 695 704 706 695 690 685 684 691 695 694 696 709 721 726 728 730 732 734 737 738 736 736 738 740 741 745 749 752 755 759 762 766 770 772 775 777 780 783 785 788 790 794 796 798 801 803 805 807 808 810 811 813 815 817 818 820 821 822 823 825 826 828 829
720 707 696 694 695 700 704 700 702 707 707 709 708 712 710 694 695 700 688 674 671 682 692 694 701 701 692 689 684 679 678 682 686 687 692 703 714 719 722 725 729 734 738 738 737 737 737 739 742 746 749 753 757 761 764 768 770 773 775 778 780 783 785 788 791 794 796 799 801 804 806 807 809 810 812 814 816 817 818 819 821 822 824 825 827 828
706 694 686 691 693 697 704 701 700 708 711 707 703 707 707 695 692 693 684 675 675 680 682 692 710 707 695 695 690 677 673 677 682 686 689 694 701 710 715 719 723 727 732 735 736 735 734 735 738 742 747 751 754 758 761 764 767 769 772 775 777 780 783 786 789 792 795 798 800 802 804 806 807 808 810 812 814 815 817 818 819 821 822 824 826 827
694 682 679 690 694 693 700 702 698 702 710 709 701 696 696 692 690 687 681 681 693 699 685 691 727 727 701 698 696 683 679 680 681 685 691 694 698 705 712 716 719 721 725 729 730 731 731 732 736 739 745 749 751 754 758 761 764 766 769 772 775 778 780 783 786 790 793 795 797 800 801 803 804 806 807 808 811 812 814 816 817 819 821 823 824 825
686 676 675 685 692 692 698 699 692 692 706 711 696 687 688 688 690 689 687 691 706 707 683 681 721 733 710 700 694 685 686 684 682 685 687 691 698 702 706 711 714 717 721 725 726 728 730 731 732 735 740 746 748 750 755 759 761 764 766 769 772 775 778 781 784 787 790 792 795 797 799 801 802 803 804 806 809 810 812 814 815 817 819 821 822 824
679 678 677 679 686 692 696 696 687 685 702 705 684 679 688 690 692 691 689 695 696 691 682 675 696 722 720 704 688 683 689 687 683 685 684 687 694 698 701 705 708 712 716 721 725 727 729 729 728 729 734 741 746 749 752 755 758 761 764 766 769 773 775 778 781 784 787 790 792 795 797 799 800 802 803 805 807 809 810 812 814 815 816 818 820 822
671 679 679 676 684 690 688 685 679 680 695 692 676 675 682 687 692 690 692 697 689 692 703 687 683 714 724 701 684 683 690 692 687 684 681 683 689 692 696 701 703 706 710 715 720 722 724 726 727 728 732 739 745 747 749 751 754 758 761 764 766 770 773 775 778 781 784 787 789 792 794 796 798 800 802 803 805 807 809 810 812 813 814 816 818 820
666 668 668 670 678 681 677 673 670 678 686 679 672 675 676 680 686 691 697 700 698 709 719 698 682 706 718 697 687 689 691 692 685 678 675 677 683 688 690 695 699 701 705 709 713 716 719 721 726 730 734 739 744 746 747 749 752 755 758 761 764 766 769 772 775 778 781 784 787 789 791 794 796 798 800 802 803 805 806 808 810 811 812 814 816 818
657 652 656 661 665 665 665 666 664 670 673 671 676 683 684 684 685 692 696 700 717 724 716 699 684 697 717 704 687 683 679 677 674 671 670 669 677 684 687 691 694 697 701 705 708 712 715 720 725 729 730 734 740 744 747 748 749 752 755 757 761 763 766 769 772 775 778 781 784 786 789 791 793 795 797 799 800 802 804 805 807 809 810 812 813 816
661 657 656 654 651 651 660 666 662 662 664 671 682 690 699 702 697 702 704 708 730 730 709 696 687 698 721 710 684 670 662 662 667 667 666 667 674 679 682 687 688 692 697 701 706 708 711 717 722 724 724 728 735 739 743 745 746 748 751 753 757 760 763 766 768 772 775 778 780 783 786 788 790 792 794 796 797 799 801 803 805 806 808 810 811 813
669 662 653 650 647 646 660 673 669 665 666 675 685 696 713 720 719 728 728 722 728 720 700 692 693 703 709 694 676 666 657 657 661 660 658 663 671 673 675 681 683 686 692 695 701 704 707 712 716 718 721 724 729 733 737 740 742 744 746 749 752 756 759 762 765 768 771 774 777 779 782 785 787 790 791 793 794 796 798 800 802 804 805 807 809 811
677 667 652 652 651 643 653 672 679 675 673 680 686 697 714 721 734 750 742 730 727 715 696 687 694 706 701 681 668 662 654 649 648 650 649 652 661 666 669 674 678 682 686 689 694 699 703 707 710 713 717 719 723 728 732 736 737 739 742 744 747 750 754 757 760 763 767 770 773 776 779 781 784 786 789 790 792 794 795 797 799 801 803 805 806 808
684 681 658 651 650 644 648 656 663 666 671 678 674 684 700 703 722 740 734 731 728 714 699 693 698 706 699 678 657 650 648 643 641 641 641 642 647 655 663 670 676 680 683 684 688 693 697 702 706 710 712 715 720 724 728 732 734 735 737 739 742 745 748 752 755 759 762 765 768 772 775 778 780 783 785 788 789 791 793 794 796 798 800 802 803 805
676 672 646 638 637 637 648 646 642 656 673 673 664 678 690 683 693 710 709 707 709 709 704 696 695 688 674 659 643 641 643 640 642 641 637 640 643 651 663 669 672 676 680 681 684 688 692 695 701 705 708 711 716 722 725 727 729 730 732 735 737 740 743 747 750 753 757 760 764 767 770 773 776 779 782 784 786 788 790 792 793 795 797 799 801 803
669 663 637 634 635 630 639 642 637 650 667 669 670 679 673 662 674 696 701 687 691 710 703 687 688 679 669 662 644 640 644 640 643 644 640 639 641 651 661 665 668 671 675 679 679 683 687 689 695 699 702 707 712 716 719 720 722 724 727 731 734 737 740 743 746 749 752 756 759 762 766 769 772 775 777 779 782 785 787 789 791 793 795 797 799 800
653 659 635 630 642 631 625 637 640 636 644 662 675 670 659 661 669 684 703 698 699 714 699 680 685 682 684 682 654 644 652 646 642 643 642 639 639 649 657 661 664 664 667 672 673 678 683 685 690 694 698 702 706 709 712 715 719 722 725 728 730 733 736 739 742 745 748 751 754 758 761 764 767 769 772 775 778 781 784 786 787 790 792 793 796 798
638 656 641 622 636 632 622 641 655 640 632 644 654 650 658 682 688 687 702 707 708 715 702 684 679 673 675 675 658 652 655 650 645 641 643 642 639 646 655 658 660 658 660 665 668 673 677 680 684 688 692 697 701 705 708 713 717 720 723 726 728 730 732 735 738 741 745 747 750 753 756 759 762 765 768 771 774 777 780 782 784 786 788 790 793 795
630 651 648 620 619 630 632 647 663 656 642 638 641 643 652 670 680 683 689 692 699 709 705 695 689 677 659 648 649 651 646 646 648 643 642 641 636 642 651 654 656 657 658 661 664 668 671 674 677 681 687 691 696 702 706 710 713 715 719 722 725 727 730 733 736 738 742 744 747 749 752 755 758 761 765 767 771 773 775 777 780 782 785 787 790 791
633 648 651 627 616 630 642 643 648 653 651 650 653 656 658 660 664 672 676 675 684 698 701 700 698 677 642 625 633 640 636 638 643 641 639 637 633 637 644 649 653 654 654 655 658 662 664 667 671 676 683 687 692 698 702 704 707 710 714 717 720 723 726 729 731 734 737 739 742 745 748 752 754 758 761 764 767 769 771 774 777 779 782 784 786 788
637 643 646 638 629 632 635 627 628 636 640 647 654 652 655 660 666 681 688 675 671 684 688 692 695 671 630 614 620 625 627 629 633 636 635 633 631 633 637 643 646 649 651 651 652 656 659 662 666 672 679 684 688 692 696 699 702 705 708 711 715 718 721 724 727 729 732 734 737 740 743 747 750 754 757 760 763 765 768 770 773 776 778 781 783 784
628 635 642 643 632 621 619 616 620 627 626 633 643 641 643 651 660 681 693 680 672 678 673 676 689 670 631 614 615 618 620 623 626 630 632 632 630 628 631 635 638 643 646 646 648 651 655 659 663 668 675 680 683 686 691 694 697 700 703 706 710 712 715 719 722 725 729 731 733 736 739 743 746 749 753 756 758 761 764 766 769 772 774 777 779 781
632 640 647 650 637 616 610 613 616 620 625 633 638 634 637 644 648 659 666 665 672 678 674 683 694 673 637 619 618 619 619 621 624 626 629 633 630 625 626 629 634 640 643 643 644 647 651 655 659 664 670 675 679 682 685 689 691 695 699 701 703 706 709 714 717 721 725 728 731 733 736 739 742 745 749 751 754 757 760 763 765 768 770 773 776 777
657 652 649 660 663 644 632 635 634 630 631 634 633 632 634 634 638 648 650 655 670 673 670 685 694 671 642 627 625 626 625 625 627 625 625 629 630 627 625 625 630 636 641 643 643 645 649 652 656 661 665 669 674 677 680 684 687 690 693 695 698 702 706 709 713 716 719 724 728 730 732 736 739 742 744 747 750 753 756 759 761 764 766 769 771 773
672 663 653 662 671 661 652 651 647 638 636 634 628 629 634 632 636 647 654 664 676 671 664 675 680 665 647 639 635 633 633 634 632 628 625 626 629 629 626 626 630 632 638 642 643 645 647 649 654 657 660 664 669 673 676 680 684 686 689 692 695 699 703 706 709 712 715 719 723 726 729 732 735 738 740 743 746 749 752 755 758 760 762 764 767 770
669 665 656 657 655 648 645 641 629 626 635 640 632 628 632 633 631 638 654 667 668 667 668 665 662 664 659 649 643 638 636 637 633 630 631 631 632 633 630 631 633 634 637 639 641 644 646 648 652 654 658 662 666 670 674 677 681 684 687 690 694 697 700 703 706 709 712 715 718 721 724 727 730 733 736 738 741 745 748 751 753 755 758 760 763 765
669 666 655 650 646 639 635 632 625 624 630 635 632 628 629 632 632 636 651 656 652 666 677 658 649 663 662 648 645 641 636 635 631 630 634 634 635 636 635 634 636 638 640 640 642 646 648 650 652 653 657 660 663 668 671 674 678 681 685 688 691 694 696 699 703 705 708 711 713 716 718 722 726 728 731 734 737 741 744 746 749 751 754 756 758 761
674 672 655 647 644 637 631 628 627 630 630 626 626 625 625 629 634 638 643 642 643 662 669 651 647 658 652 644 644 638 633 633 629 626 628 631 634 635 636 637 639 643 645 646 647 648 650 652 653 654 657 658 662 666 668 672 675 678 682 685 688 690 692 695 698 701 704 706 708 711 714 718 722 724 727 730 733 736 739 742 745 747 750 752 754 757
674 673 656 648 646 639 634 630 627 631 635 631 625 620 620 625 630 634 638 635 637 650 650 644 651 654 643 637 636 629 626 626 625 625 628 633 637 638 639 639 640 644 648 649 650 650 651 653 654 655 657 659 661 664 666 669 672 675 679 681 684 687 689 691 694 696 699 701 703 707 711 714 718 721 724 726 729 732 735 738 741 743 746 748 750 752
676 673 658 653 655 649 640 635 632 634 639 638 628 616 614 621 626 632 637 633 636 647 644 642 654 654 636 627 626 624 623 625 630 633 635 637 639 640 641 640 639 643 647 649 651 652 652 654 655 657 658 659 660 661 664 666 668 671 674 677 680 682 685 687 689 691 694 697 700 705 708 710 713 717 720 723 725 727 730 733 736 739 741 743 746 748
682 680 666 663 670 662 646 641 636 632 637 642 638 627 620 622 626 629 632 631 635 645 648 649 659 656 636 625 628 628 627 633 639 639 638 640 641 642 644 642 640 642 645 647 650 651 654 655 656 657 657 657 659 660 662 664 666 668 670 673 676 678 681 683 684 686 690 693 697 701 703 706 709 712 715 718 721 723 726 729 731 734 736 738 741 744
691 692 680 675 679 667 650 644 636 637 655 661 649 635 625 620 621 623 626 628 626 633 647 654 654 646 633 628 634 636 635 641 645 643 642 645 646 646 646 645 644 642 643 645 648 650 652 652 652 654 654 655 657 659 661 662 664 666 667 670 673 675 677 679 680 683 686 689 693 695 699 703 705 708 711 713 716 719 722 725 727 729 732 734 737 740
698 698 690 685 684 672 655 646 645 661 679 667 637 621 619 619 621 621 623 624 623 624 632 638 637 635 633 633 637 639 640 642 644 643 642 645 648 650 649 648 647 644 642 643 645 646 647 646 648 650 651 653 655 657 659 661 662 664 666 668 670 672 674 676 678 680 682 685 689 692 695 699 701 704 707 710 713 716 718 721 722 725 728 731 733 735
703 699 694 688 683 673 660 659 674 686 674 646 623 613 613 617 619 621 621 618 616 618 622 626 629 631 635 636 635 638 640 639 640 641 641 642 645 648 650 649 647 645 644 643 644 644 644 645 647 649 650 652 653 654 656 659 660 663 664 666 668 669 671 674 676 677 679 682 685 688 692 695 697 701 704 707 710 713 715 717 719 722 725 727 729 730
707 703 700 694 683 676 674 678 686 677 650 633 629 620 617 624 628 634 638 624 610 614 623 629 633 633 636 639 637 638 639 638 640 643 642 642 642 644 648 647 644 643 642 642 643 645 644 645 647 649 650 652 653 653 654 656 658 661 662 664 666 667 669 671 673 675 677 679 681 685 688 691 694 697 701 704 707 709 711 713 715 719 721 724 726 727
707 706 707 703 689 683 688 685 672 662 653 646 640 627 625 635 635 640 651 639 617 617 626 634 638 638 639 641 640 639 640 645 653 653 644 641 641 641 644 644 640 639 638 638 641 643 645 647 648 650 652 653 654 655 654 655 656 658 659 661 663 665 667 669 670 672 674 676 678 681 685 688 691 694 698 701 702 704 707 709 712 716 718 721 723 724
706 706 708 709 698 688 694 691 675 672 673 660 643 627 624 632 630 631 649 650 632 625 629 635 641 641 639 641 640 640 645 658 667 661 647 641 641 641 644 644 641 640 640 640 642 644 646 650 651 652 654 654 654 655 654 654 655 655 657 658 660 663 665 666 667 669 671 674 676 679 682 685 688 692 694 697 699 701 704 707 710 712 715 717 719 721
706 705 704 710 709 698 700 700 686 678 672 656 640 629 628 634 630 634 658 665 647 635 635 636 639 640 642 645 641 640 651 667 673 664 650 644 644 645 648 648 646 646 647 647 647 648 650 652 653 654 654 654 654 654 654 654 654 654 654 655 657 660 662 663 664 666 669 672 675 678 681 683 686 689 691 694 696 698 701 704 707 709 712 714 716 718
709 710 708 712 714 706 703 699 682 670 665 652 638 632 632 632 634 654 682 682 658 646 641 636 640 645 648 650 648 648 658 668 671 664 652 644 645 646 649 651 651 651 651 651 652 652 652 653 654 655 654 654 653 653 653 654 654 653 653 653 655 657 658 660 662 665 668 671 673 676 679 681 684 687 689 692 694 696 698 701 704 706 709 711 713 715
714 714 712 712 709 704 705 700 681 667 661 651 644 641 635 634 647 675 693 683 664 655 648 643 649 654 654 655 657 659 661 662 662 661 653 648 650 650 650 652 653 653 653 653 654 654 653 654 655 656 655 654 653 653 653 653 653 653 652 652 653 654 656 659 662 664 667 669 671 674 676 679 682 685 687 690 692 694 696 698 700 703 705 707 710 711
719 718 715 713 708 700 698 696 688 677 661 648 648 649 647 657 677 689 685 673 664 661 656 655 659 660 660 662 664 665 663 659 657 658 656 655 656 655 653 653 654 655 655 654 653 654 654 655 656 657 655 653 652 652 652 652 652 652 652 652 652 653 656 658 660 663 665 667 669 672 675 677 680 682 685 688 690 691 693 695 697 700 701 704 706 707
710 717 719 714 707 703 699 697 700 697 675 655 657 666 671 682 691 688 679 670 665 665 666 666 667 667 668 669 668 667 665 662 660 660 660 659 658 658 657 656 656 657 656 654 654 655 655 656 657 657 655 654 653 652 652 652 652 652 652 652 652 654 656 657 659 661 663 666 668 671 673 676 678 680 683 685 687 689 691 693 695 697 699 701 703 705
702 710 715 710 702 703 703 697 696 695 680 666 671 682 685 683 679 677 678 676 673 674 674 673 673 673 672 673 673 672 670 669 667 665 664 663 661 660 659 658 658 659 657 655 656 656 657 657 657 657 657 656 656 654 653 652 652 652 653 653 654 655 656 657 658 660 662 664 667 669 672 674 676 679 681 683 686 688 689 691 693 695 697 699 701 703
706 705 710 709 701 698 699 694 688 685 678 674 678 681 680 677 673 674 679 681 681 682 680 679 680 677 673 674 677 676 675 675 673 669 668 667 664 662 661 660 660 661 659 657 658 659 659 659 658 659 659 658 658 657 654 653 653 653 654 655 655 655 656 656 658 659 661 663 666 668 671 673 675 678 680 682 684 686 688 690 692 694 696 697 699 702
703 701 706 709 704 698 695 691 687 683 680 680 683 681 679 677 675 675 681 684 686 685 683 684 685 681 676 676 678 680 681 679 676 674 672 670 667 665 663 663 662 662 661 661 661 662 661 660 660 660 660 659 659 658 656 655 655 655 656 657 657 657 657 657 658 659 661 664 666 668 670 672 674 677 679 681 683 685 687 689 690 692 695 696 698 700
703 702 705 706 707 708 702 691 685 685 684 684 687 685 681 679 678 680 685 687 686 685 685 685 685 684 681 679 679 683 683 680 678 679 676 673 672 669 666 666 665 663 664 663 664 664 663 662 661 662 662 662 662 661 660 658 657 657 658 658 658 658 658 658 659 661 662 664 666 668 670 672 674 676 678 681 682 684 686 688 689 691 693 695 697 698
710 709 709 707 706 708 703 692 687 688 686 684 687 687 684 684 683 684 687 687 686 686 686 685 685 684 683 682 682 683 682 680 681 681 679 677 675 671 670 669 667 666 666 665 665 666 665 664 663 663 665 665 664 664 663 661 660 660 660 659 659 659 660 660 661 662 663 665 667 668 670 671 673 675 677 680 681 682 683 685 687 688 690 692 694 695
712 715 714 709 707 706 701 694 692 693 689 685 685 684 683 684 686 687 689 688 687 687 686 686 685 684 684 685 684 682 682 682 682 682 681 679 676 674 672 670 668 668 668 667 667 667 667 666 665 665 666 667 666 666 665 663 663 663 662 661 660 660 661 662 662 663 665 666 667 669 670 672 673 675 676 678 680 681 682 684 685 686 688 691 692 693
712 715 712 710 711 708 700 693 691 694 693 687 683 682 683 685 686 687 688 689 689 689 687 686 685 684 684 685 685 684 683 681 681 681 681 679 677 675 673 671 669 668 668 668 668 668 668 668 667 667 668 668 668 667 666 665 665 664 663 663 662 662 663 663 664 665 666 667 668 670 671 672 674 674 675 677 679 681 683 685 686 687 688 690 692 694
710 710 709 710 709 702 694 689 688 691 692 688 683 683 685 687 687 687 686 688 688 688 687 686 685 684 683 683 683 683 682 680 678 679 678 677 676 675 673 672 670 669 668 669 669 668 669 669 669 669 670 670 669 668 668 667 666 666 665 665 664 664 665 665 666 667 668 669 670 671 672 674 675 676 677 679 680 682 684 686 688 689 690 692 693 695